Regional Weather Roundup
Issued by NWS State College, PA

Home | Current Version | Previous Version | Graphics & Text | Print | Product List | Glossary On
Versions: 1 2 3 4 5 6 7 8 9 10 11 12 13 14 15 16 17 18 19 20 21 22 23 24 25 26 27 28 29 30 31 32 33 34 35 36 37 38 39 40 41 42 43 44 45 46 47 48 49 50
000
ASUS41 KCTP 192310
RWRCTP
REGIONAL WEATHER ROUNDUP
NATIONAL WEATHER SERVICE STATE COLLEGE PA
700 PM EDT TUE SEP 19 2017

Note: "fair" indicates few or no clouds below 12,000 feet with no
significant weather and/or obstructions to visibility.

* = STATION THAT DOES NOT REPORT PRECIPITATION /E.G. RAIN...SNOW...ETC/
    THUNDER OR FOG.

PAZ002>004-007>009-013>016-020>023-029>032-200000-
WESTERN PENNSYLVANIA

CITY           SKY/WX    TMP DP  RH WIND       PRES   REMARKS
ERIE           CLEAR     73  64  73 NE7       29.97R
MEADVILLE      MOCLDY    75  67  76 W3        29.99R
FRANKLIN*      CLEAR     75  62  64 CALM      30.00S
NEW CASTLE     MOCLDY    75  66  73 NW7       29.98R
BEAVER COUNTY  CLEAR     77  61  57 CALM      29.98S
BUTLER*        CLEAR     76  62  62 E5        29.98S
PITTSBURGH INT PTCLDY    79  61  53 E5        29.96S
PITTSBURGH     CLEAR     78  59  51 NE3       29.96S
INDIANA*       CLEAR     73  66  78 CALM      30.01S
LATROBE        CLEAR     75  63  64 CALM      29.98S
WASHINGTON CO* CLEAR     73  64  73 CALM      29.97S
$$

PAZ004>006-010>012-017>019-024>028-033>037-041-042-045-046-049>053-200000-
CENTRAL PENNSYLVANIA

CITY           SKY/WX    TMP DP  RH WIND       PRES   REMARKS
BRADFORD       CLEAR     71  56  58 CALM      30.03S
DUBOIS         CLEAR     72  57  59 CALM      30.01R
CLEARFIELD     CLEAR     75  61  61 NE3       30.00F
JOHNSTOWN      CLEAR     71  61  70 E3        30.02S
ALTOONA        CLEAR     71  63  75 NE3       30.00S
STATE COLLEGE  CLEAR     73  63  68 CALM      29.99S
WILLIAMSPORT   CLEAR     74  67  78 CALM      29.94S
SELINSGROVE    CLEAR     68  67  96 CALM      29.95F
FT INDIANTOWN  CLEAR     75  66  73 NW7       29.92F
CAPITAL CITY   CLEAR     75  63  66 NW6       29.93F
HARRISBURG     PTCLDY    75  65  70 NW9       29.92S
YORK           CLEAR     73  66  78 NW6       29.93F
$$

PAZ038>040-043-044-047-048-054-055-060>062-067>071-200000-
EASTERN PENNSYLVANIA

CITY           SKY/WX    TMP DP  RH WIND       PRES   REMARKS
SCRANTON       PTCLDY    78  63  59 N6        29.96S
MOUNT POCONO   CLOUDY    71  56  58 NE9       30.00F
ALLENTOWN      CLOUDY    78  63  59 NE7       29.92S
QUAKERTOWN*    CLOUDY    75  64  69 N7        29.93R
READING        PTCLDY    79  66  64 NE7       29.90S
LANCASTER      PTCLDY    77  68  73 NW7       29.91F
COATESVILLE    CLOUDY    75  64  69 N7        29.93R
POTTSTOWN      CLOUDY    75  63  66 NE6       29.92S
BLUE BELL      CLOUDY    73  63  68 N5        29.90S
DOYLESTOWN     NOT AVBL
WILLOW GROVE   NOT AVBL
NORTH PHILA    CLOUDY    74  66  76 N13       29.89F
PHILADELPHIA   LGT RAIN  71  67  87 NE10G20   29.87F FOG
$$



USA.gov is the U.S. government's official web portal to all federal, state and local government web resources and services.